{"data":{"norad_id":64294,"intl_designator":"2025-123D","name":"STARLINK-34388","alt_names":[],"object_type":"PAYLOAD","status":"ACTIVE","operator":null,"country":"US","launch_date":"2025-06-08","launch_site_code":"AFWTR","launch_vehicle":null,"mission":null,"orbit_class":"UNKNOWN","rcs_meters":null,"size_class":null,"mass_kg":null,"dimensions":null,"purposes":["comms"],"wikipedia_slug":null,"has_3d_model":false,"image_url":null,"decayed_at":null,"tle_current":{"epoch":"2026-09-20T20:23:20.485824Z","epoch_age_seconds":107447,"freshness":"FRESH","line1":"1 64294U 25123D   26263.84954266  .00013142  00000+0  46040-3 0  9998","line2":"2 64294  70.0001  59.9150 0003831 281.6676  78.4069 15.29606475 72137","mean_motion":15.29606475,"eccentricity":0.0003831,"inclination_deg":70.0001,"raan_deg":59.915,"arg_perigee_deg":281.6676,"mean_anomaly_deg":78.4069,"bstar":0.0004604,"rev_number":7213,"period_min":94.141860899222,"perigee_km":474.36160278408,"apogee_km":479.61399940668,"semimajor_km":6855.1248010954,"source":"CELESTRAK","updated_at":"2026-09-21T09:00:35.288123Z"}}}